SCP
0 0 0 0 0 -0 -0 -0 -0 -0 0 0 0 0 0 0 0 -0 0 0 0 0 0 0 0 0 0 0 0 0 0 0 0 0 0 0 0 0 0 0 0 0 0 0 0
0 0 0 0 0 0 0 0 -0 0 0 0 0 0 0 0 0 0 0 0 0 0 0 0 0 0 0 0 0 0 0 0 0 0 0 0 0 0 0 0 0 0 0 0 0
0 0 0 0 -0 0 0 0 -0 0 0 0 0 0 0 -0 -0 0 0 0 0 -0 0 0 0 0 0 0 0 0 0 0 0 0 0 0 0 0 0 0 0 0 0 0 0
0 0 0 0 -0 0 -0 -0 -0 0 0 0 0 0 0 -0 0 0 0 -0 -0 -0 0 0 0 0 0 0 0 0 0 0 0 0 0 0 0 0 0 0 0 0 0 0 0
0 0 0 0 0 -0 0 0 0 0 0 0 0 0 0 0 0 0 0 0 0 0 0 0 0 0 0 0 0 0 0 0 0 0 0 0 0 0 0 0 0 0 0 0 0
0 0 0 0 0 0 0 0 0 -0 0 0 0 0 0 0 0 0 0 0 0 0 0 0 0 0 0 0 0 0 0 0 0 0 0 0 0 0 0 0 0 0 0 0 0
0 0 0 0 0 0 -0 -0 0 0 0 0 0 0 0 0 0 0 0 0 0 0 0 0 0 0 0 0 0 0 0 0 0 0 0 0 0 0 0 0 0 0 0 0 0
0 0 0 0 0 -0 -0 -0 0 0 0 0 0 0 0 0 0 0 0 0 0 0 0 0 0 0 0 0 0 0 0 0 0 0 0 0 0 0 0 0 0 0 0 0 0
0 0 0 0 -0 -0 -0 0 0 0 0 0 0 0 0 0 0 0 0 0 0 0 0 0 0 0 0 0 0 0 0 0 0 0 0 0 0 0 0 0 0 0 0 0 0
0 0 0 0 -0 -0 -0 0 0 0 0 0 0 0 0 0 0 0 0 0 0 0 0 0 0 0 0 0 0 0 0 0 0 0 -0 0 0 0 0 0 0 0 0 0 0
0 0 0 0 -0 0 -0 0 0 0 0 0 0 0 0 0 0 0 0 0 0 0 0 0 0 0 0 0 0 0 0 0 0 0 0 0 0 0 0 0 0 0 0 0 0
0 0 -0 0 -0 0 0 0 0 0 0 0 0 0 0 0 0 0 0 0 0 0 0 0 0 -0 0 0 0 0 0 0 0 0 0 0 0 0 0 0 0 0 0 0 0
0 0 -0 0 0 0 0 0 0 0 0 0 0 0 0 0 0 0 0 0 0 0 0 0 0 0 0 0 0 0 0 0 0 0 0 0 0 0 0 0 0 0 0 0 0
0 0 0 0 0 0 0 0 0 0 0 0 0 0 0 0 0 0 0 0 0 0 0 0 0 0 0 -0 -0 0 0 0 0 0 0 0 0 0 0 0 0 0 0 0 0
0 0 0 0 0 0 0 0 0 0 -0 0 0 0 0 0 0 0 0 0 0 0 0 -0 0 0 0 0 0 0 0 0 0 0 0 0 0 0 0 0 0 0 0 0 0
0 -0 -0 0 0 0 0 0 0 -0 0 0 0 0 0 0 0 0 0 0 0 0 0 0 0 -0 -0 0 0 0 0 0 0 0 0 0 0 0 0 0 0 0 0 0 0
0 -0 0 0 0 0 0 0 -0 0 0 0 0 0 0 0 0 0 0 0 0 0 0 0 -0 0 0 -0 -0 0 0 0 0 0 0 0 0 0 0 0 0 0 0 0 0
0 0 0 0 0 0 0 -0 0 0 0 0 0 0 0 0 0 0 0 0 0 0 0 -0 0 0 0 0 -0 0 0 0 0 0 0 0 0 0 -0 0 0 0 0 0 0
-0 0 0 0 0 0 -0 0 0 0 0 0 0 0 0 0 0 0 0 0 0 0 0 0 0 -0 -0 0 0 0 0 0 0 0 -0 0 0 0 0 0 0 0 0 0 0
0 0 0 0 0 0 0 0 0 0 0 0 0 0 0 0 0 0 0 0 0 0 0 0 -0 -0 -0 0 -0 -0 0 0 0 0 0 0 0 0 0 0 0 0 0 0 0
0 0 0 0 0 0 0 0 0 0 0 0 0 0 0 0 0 0 0 0 0 0 0 0 0 -0 -0 0 -0 0 -0 0 0 0 0 0 0 0 0 0 0 0 0 0 0
0 0 0 0 0 0 0 0 0 0 0 0 0 0 0 0 0 0 0 0 0 0 0 0 0 0 -0 -0 -0 -0 -0 0 0 0 0 0 0 0 0 0 0 0 0 0 0
0 0 0 -0 0 0 0 0 0 0 0 0 0 0 0 0 0 0 0 0 0 0 0 0 0 0 -0 0 -0 -0 -0 0 0 0 0 0 0 0 0 0 0 0 0 0 0
0 0 0 0 0 0 0 0 0 0 0 0 0 0 0 0 0 0 0 0 0 0 0 0 0 0 0 -0 -0 -0 -0 -0 -0 -0 0 0 -0 0 0 0 0 0 0 0 0
0 0 0 0 0 0 0 0 0 0 0 0 0 0 0 0 0 0 0 0 0 0 0 0 0 0 -0 -0 -0 -0 -0 -0 -0 -0 -0 0 -0 0 0 0 0 0 0 -0 0
0 0 0 0 0 0 0 0 0 0 0 0 0 0 0 0 0 0 0 0 0 0 0 0 0 0 -0 0 0 -0 0 0 0 0 0 0 -0 0 -0 -0 -0 0 0 0 0
0 0 0 0 0 0 0 0 0 0 0 0 0 0 0 0 0 0 0 0 0 0 0 0 0 0 0 0 -0 0 0 -0 -0 0 -0 -0 -0 -0 -0 0 -0 0 0 0 0
Wind_Speed_500mb
57 55 54 56 55 54 53 52 53 52 53 51 49 46 42 42 43 42 34 24 24 28 24 20 19 38 36 36 30 29 21 38 52 47 36 22 34 40 28 39 25 30 29 6 12
57 56 56 55 54 53 53 53 53 55 56 53 47 43 44 41 42 26 9 12 17 9 13 19 24 41 39 43 30 31 32 48 41 33 32 36 31 31 21 37 41 38 21 7 17
61 62 62 61 61 60 59 57 56 53 46 44 41 43 42 43 23 3 20 22 19 13 16 20 19 41 43 34 48 31 52 34 33 25 38 43 43 29 33 36 28 41 43 19 18
62 63 61 59 58 57 57 55 54 50 48 43 42 37 31 21 14 19 33 28 16 15 17 18 28 43 30 40 47 38 46 53 49 30 37 38 38 39 42 52 41 30 33 16 22
62 64 64 64 61 59 57 54 46 38 40 38 37 35 28 9 6 25 32 24 16 8 19 27 31 40 35 22 43 47 44 45 37 47 50 48 44 40 49 48 42 47 45 43 38
64 68 68 68 67 59 55 45 36 35 32 33 29 26 15 10 11 27 26 19 10 15 16 27 21 34 31 32 31 23 28 47 52 51 49 44 47 47 46 48 58 58 59 61 56
68 71 71 70 64 58 47 41 36 28 30 35 33 19 9 15 22 32 27 15 16 20 25 24 29 24 9 28 42 37 37 37 39 38 32 29 48 60 64 62 49 37 43 63 67
70 71 71 63 55 50 46 39 34 30 34 37 18 16 10 26 31 37 25 20 11 14 22 24 21 35 41 38 26 26 37 40 37 46 49 35 55 7 3 39 66 69 61 40 48
71 71 63 55 46 44 48 39 42 18 43 25 24 6 13 24 21 34 36 22 10 6 10 8 18 31 23 31 34 35 37 43 36 30 30 45 40 37 32 21 29 35 53 62 62
72 67 55 45 35 46 52 34 41 21 40 19 28 2 29 34 15 29 32 19 19 7 10 21 21 24 27 29 32 37 44 38 42 32 35 41 40 35 27 21 23 25 26 32 50
70 63 47 31 33 45 50 33 41 5 31 9 10 17 25 31 7 25 28 26 25 23 16 16 23 33 41 38 38 41 46 44 42 25 34 34 40 38 37 36 42 43 41 41 39
67 63 45 22 25 39 35 27 18 17 12 14 9 2 26 25 21 27 29 24 31 29 32 26 28 40 33 27 36 45 49 48 43 37 35 39 51 45 45 45 57 57 55 52 52
67 64 45 30 23 34 27 28 38 11 12 4 5 13 28 39 35 28 36 37 26 29 29 29 35 35 29 39 41 46 46 45 47 39 38 38 49 48 49 56 61 65 68 68 64
68 59 42 37 15 36 18 37 38 3 10 11 8 8 30 48 20 31 21 26 32 35 30 28 27 22 31 41 44 49 45 47 43 37 33 39 38 37 28 36 42 56 65 76 76
67 48 37 35 31 25 34 40 22 3 9 20 11 14 51 29 24 22 30 32 37 39 29 40 32 28 35 41 39 34 41 30 41 43 39 47 31 33 35 36 41 40 55 61 71
62 36 41 42 29 32 39 34 4 13 10 12 14 37 41 18 35 32 40 33 32 30 29 35 33 36 36 36 32 35 36 34 37 30 35 49 43 37 32 38 38 36 42 51 58
57 23 46 42 43 41 38 11 11 11 19 17 28 39 34 24 34 24 39 30 15 20 26 36 27 8 11 23 22 29 23 11 15 20 30 41 37 39 39 44 36 32 36 38 48
51 14 43 45 39 36 20 12 10 13 16 27 27 35 16 30 24 35 29 24 2 20 29 18 26 6 22 28 34 32 31 16 20 12 28 43 19 32 32 30 50 56 41 34 35
41 14 27 55 37 23 19 13 10 16 22 26 37 17 15 30 26 31 30 11 12 20 17 22 16 48 38 20 15 19 33 36 21 36 14 13 26 31 29 26 31 27 36 41 31
34 7 29 55 26 16 8 7 6 9 21 20 18 14 33 35 26 33 22 9 20 12 16 15 25 22 15 34 35 36 16 13 17 10 12 20 32 18 16 12 14 20 26 27 27
24 3 29 40 19 13 12 10 7 13 20 15 19 23 29 28 30 30 13 26 4 29 29 26 13 24 34 5 30 11 27 17 13 22 20 23 5 22 9 15 10 12 13 6 3
15 5 32 29 14 7 11 9 10 12 13 13 16 16 22 33 21 17 15 16 34 34 26 21 10 23 44 24 18 11 6 29 12 27 27 30 14 19 7 6 8 7 9 15 17
18 9 20 25 10 12 9 5 6 16 14 11 11 10 22 23 13 18 17 18 33 14 11 6 8 18 21 4 6 9 18 16 9 19 23 23 26 10 1 7 6 14 29 31 40
13 7 8 22 13 11 13 7 16 20 18 12 24 22 15 26 18 21 34 15 36 45 32 19 8 18 23 36 33 36 30 27 18 8 20 28 42 41 29 25 33 39 46 47 46
17 8 7 11 13 18 10 7 17 17 7 15 9 12 18 12 33 12 35 36 32 24 10 7 17 30 33 42 42 41 40 36 33 34 34 39 42 40 36 40 39 51 45 36 37
11 11 9 13 13 16 4 11 19 17 11 14 16 34 31 16 25 41 37 32 14 14 11 8 11 28 35 24 17 29 32 32 34 35 39 40 51 37 29 35 43 50 32 30 34
12 11 3 1 10 10 9 13 17 27 15 24 32 35 36 26 48 68 59 52 36 24 7 8 10 15 12 27 35 13 8 4 11 27 30 25 42 40 38 43 19 12 17 24 32
Wind_Direction_500mb
4 1 359 355 352 348 345 340 336 333 329 327 327 327 326 323 317 311 293 272 295 260 248 240 209 193 198 213 217 225 235 238 238 234 247 239 251 236 244 254 211 214 247 333 184
3 0 359 354 350 346 342 337 334 332 330 326 326 326 329 330 326 310 318 316 325 252 201 187 193 186 194 210 209 213 231 241 253 258 247 257 234 243 235 238 237 224 211 190 178
0 358 357 353 348 345 339 336 334 332 328 325 326 326 329 335 328 108 343 326 317 286 214 216 217 197 218 217 210 221 241 248 251 272 255 258 255 239 246 249 227 227 221 216 202
356 354 354 350 346 341 335 333 333 331 332 332 329 327 328 339 325 336 328 325 309 266 225 217 204 204 221 217 224 244 245 247 261 266 245 250 257 253 249 247 251 237 253 212 221
353 352 351 348 345 341 336 334 332 334 333 335 331 333 345 309 316 345 348 335 326 271 217 214 217 221 239 245 241 235 251 252 245 257 254 265 256 262 256 253 250 251 247 245 243
352 352 350 348 347 345 342 340 342 340 343 343 347 345 2 299 343 343 345 327 268 234 239 224 232 241 275 269 244 262 263 258 254 251 254 255 262 253 249 252 251 247 248 248 245
352 353 351 351 350 351 354 349 342 353 356 354 342 1 63 39 21 358 330 313 263 251 251 247 246 239 258 258 252 257 262 254 243 238 242 255 259 248 250 246 241 240 247 243 241
353 354 354 356 358 360 0 357 353 358 1 351 36 56 78 28 25 3 345 326 291 258 250 253 251 251 258 263 259 249 248 253 244 236 236 230 258 255 171 226 240 240 237 236 236
354 357 358 4 6 13 9 2 346 63 6 14 25 36 72 2 14 17 21 17 351 275 255 243 231 242 237 244 252 242 253 248 241 228 243 216 258 244 242 259 246 236 234 240 245
354 359 2 10 21 9 3 8 359 13 356 19 12 289 23 357 328 352 3 14 8 344 261 235 237 236 223 244 245 248 240 238 257 248 214 244 240 258 211 229 238 243 240 244 242
352 360 4 11 14 10 13 356 9 6 16 43 36 63 358 356 357 349 354 335 326 295 287 282 248 239 249 248 257 278 279 275 275 264 270 261 271 266 260 249 256 252 246 244 241
351 355 1 352 357 4 17 27 16 315 316 51 87 44 11 355 309 336 343 337 319 302 293 275 263 272 284 280 273 262 260 258 261 260 260 265 265 260 254 256 252 254 251 249 248
351 351 358 359 332 351 359 1 347 323 261 68 323 2 6 346 320 337 337 328 316 306 302 277 268 266 257 279 283 259 252 258 259 259 247 261 266 261 258 257 253 249 248 250 246
350 352 360 4 8 351 11 339 344 226 244 27 345 39 336 332 302 332 335 325 308 315 308 285 285 315 269 257 241 250 254 263 263 254 259 251 268 264 259 253 237 239 238 240 243
351 354 1 0 337 344 326 333 341 210 278 356 358 319 336 351 331 338 328 309 301 296 288 271 297 303 293 277 284 267 264 272 258 261 255 252 252 261 253 255 250 246 239 240 238
352 353 357 354 359 332 324 324 309 238 27 347 320 337 334 346 337 322 330 315 292 283 273 266 274 273 275 293 280 264 270 270 269 260 245 240 248 254 256 251 242 242 246 237 236
353 2 2 0 341 342 339 333 251 17 353 343 327 330 323 346 336 343 329 327 338 323 331 320 287 279 285 295 251 239 247 250 238 226 236 223 229 244 250 251 253 256 257 247 241
353 342 0 358 349 343 345 263 16 4 339 324 322 315 328 341 347 330 323 330 66 324 313 332 318 12 336 309 292 278 234 251 252 286 237 227 220 236 241 257 256 253 254 268 250
357 0 359 352 353 359 312 37 14 354 343 322 318 328 340 350 334 329 336 344 342 350 342 318 293 321 294 273 305 270 232 241 266 277 256 232 234 250 249 247 253 247 236 241 235
359 20 355 352 355 5 17 59 353 343 329 321 320 340 325 341 335 345 323 355 331 351 328 303 300 298 323 332 293 238 248 236 221 259 220 236 251 251 165 239 332 230 229 238 236
11 302 352 357 27 35 38 38 325 346 341 326 314 303 316 336 325 322 290 312 32 331 328 302 238 289 304 250 297 251 227 227 283 268 263 241 119 63 41 316 134 67 75 96 264
6 307 346 22 41 29 31 353 333 316 323 295 288 292 306 326 303 313 291 301 324 330 308 318 282 293 299 306 279 266 259 273 230 236 244 282 269 119 99 23 32 86 26 340 315
345 319 345 18 25 26 8 310 286 317 335 311 290 282 318 312 313 289 306 292 317 330 317 316 250 305 325 167 50 339 323 296 200 259 253 255 255 99 44 268 255 311 323 317 312
348 327 24 42 54 346 357 10 338 320 300 286 282 290 337 305 280 278 291 319 314 299 294 273 231 249 277 301 306 297 289 275 272 277 291 269 276 279 280 290 295 305 304 300 297
14 35 1 339 20 343 314 330 330 347 284 304 261 265 341 288 311 273 323 318 310 292 259 271 269 276 278 286 285 278 279 279 271 268 268 279 284 284 302 303 302 298 301 290 280
15 354 316 296 309 305 154 358 322 336 294 309 282 317 312 272 262 287 299 305 284 305 319 283 275 301 292 277 262 295 285 280 288 291 282 289 276 273 294 303 294 293 319 319 303
10 341 339 43 314 294 16 338 315 323 288 266 300 311 310 310 308 293 283 271 254 271 289 271 294 311 287 317 309 272 43 40 286 289 287 279 283 306 302 292 275 314 331 304 297
Wind_Speed_850mb
57 55 54 56 55 54 53 52 53 52 53 51 49 46 42 42 43 42 34 24 24 28 24 20 19 38 36 36 30 29 21 38 52 47 36 22 34 40 28 39 25 30 29 6 12
57 56 56 55 54 53 53 53 53 55 56 53 47 43 44 41 42 26 9 12 17 9 13 19 24 41 39 43 30 31 32 48 41 33 32 36 31 31 21 37 41 38 21 7 17
61 62 62 61 61 60 59 57 56 53 46 44 41 43 42 43 23 3 20 22 19 13 16 20 19 41 43 34 48 31 52 34 33 25 38 43 43 29 33 36 28 41 43 19 18
62 63 61 59 58 57 57 55 54 50 48 43 42 37 31 21 14 19 33 28 16 15 17 18 28 43 30 40 47 38 46 53 49 30 37 38 38 39 42 52 41 30 33 16 22
62 64 64 64 61 59 57 54 46 38 40 38 37 35 28 9 6 25 32 24 16 8 19 27 31 40 35 22 43 47 44 45 37 47 50 48 44 40 49 48 42 47 45 43 38
64 68 68 68 67 59 55 45 36 35 32 33 29 26 15 10 11 27 26 19 10 15 16 27 21 34 31 32 31 23 28 47 52 51 49 44 47 47 46 48 58 58 59 61 56
68 71 71 70 64 58 47 41 36 28 30 35 33 19 9 15 22 32 27 15 16 20 25 24 29 24 9 28 42 37 37 37 39 38 32 29 48 60 64 62 49 37 43 63 67
70 71 71 63 55 50 46 39 34 30 34 37 18 16 10 26 31 37 25 20 11 14 22 24 21 35 41 38 26 26 37 40 37 46 49 35 55 7 3 39 66 69 61 40 48
71 71 63 55 46 44 48 39 42 18 43 25 24 6 13 24 21 34 36 22 10 6 10 8 18 31 23 31 34 35 37 43 36 30 30 45 40 37 32 21 29 35 53 62 62
72 67 55 45 35 46 52 34 41 21 40 19 28 2 29 34 15 29 32 19 19 7 10 21 21 24 27 29 32 37 44 38 42 32 35 41 40 35 27 21 23 25 26 32 50
70 63 47 31 33 45 50 33 41 5 31 9 10 17 25 31 7 25 28 26 25 23 16 16 23 33 41 38 38 41 46 44 42 25 34 34 40 38 37 36 42 43 41 41 39
67 63 45 22 25 39 35 27 18 17 12 14 9 2 26 25 21 27 29 24 31 29 32 26 28 40 33 27 36 45 49 48 43 37 35 39 51 45 45 45 57 57 55 52 52
67 64 45 30 23 34 27 28 38 11 12 4 5 13 28 39 35 28 36 37 26 29 29 29 35 35 29 39 41 46 46 45 47 39 38 38 49 48 49 56 61 65 68 68 64
68 59 42 37 15 36 18 37 38 3 10 11 8 8 30 48 20 31 21 26 32 35 30 28 27 22 31 41 44 49 45 47 43 37 33 39 38 37 28 36 42 56 65 76 76
67 48 37 35 31 25 34 40 22 3 9 20 11 14 51 29 24 22 30 32 37 39 29 40 32 28 35 41 39 34 41 30 41 43 39 47 31 33 35 36 41 40 55 61 71
62 36 41 42 29 32 39 34 4 13 10 12 14 37 41 18 35 32 40 33 32 30 29 35 33 36 36 36 32 35 36 34 37 30 35 49 43 37 32 38 38 36 42 51 58
57 23 46 42 43 41 38 11 11 11 19 17 28 39 34 24 34 24 39 30 15 20 26 36 27 8 11 23 22 29 23 11 15 20 30 41 37 39 39 44 36 32 36 38 48
51 14 43 45 39 36 20 12 10 13 16 27 27 35 16 30 24 35 29 24 2 20 29 18 26 6 22 28 34 32 31 16 20 12 28 43 19 32 32 30 50 56 41 34 35
41 14 27 55 37 23 19 13 10 16 22 26 37 17 15 30 26 31 30 11 12 20 17 22 16 48 38 20 15 19 33 36 21 36 14 13 26 31 29 26 31 27 36 41 31
34 7 29 55 26 16 8 7 6 9 21 20 18 14 33 35 26 33 22 9 20 12 16 15 25 22 15 34 35 36 16 13 17 10 12 20 32 18 16 12 14 20 26 27 27
24 3 29 40 19 13 12 10 7 13 20 15 19 23 29 28 30 30 13 26 4 29 29 26 13 24 34 5 30 11 27 17 13 22 20 23 5 22 9 15 10 12 13 6 3
15 5 32 29 14 7 11 9 10 12 13 13 16 16 22 33 21 17 15 16 34 34 26 21 10 23 44 24 18 11 6 29 12 27 27 30 14 19 7 6 8 7 9 15 17
18 9 20 25 10 12 9 5 6 16 14 11 11 10 22 23 13 18 17 18 33 14 11 6 8 18 21 4 6 9 18 16 9 19 23 23 26 10 1 7 6 14 29 31 40
13 7 8 22 13 11 13 7 16 20 18 12 24 22 15 26 18 21 34 15 36 45 32 19 8 18 23 36 33 36 30 27 18 8 20 28 42 41 29 25 33 39 46 47 46
17 8 7 11 13 18 10 7 17 17 7 15 9 12 18 12 33 12 35 36 32 24 10 7 17 30 33 42 42 41 40 36 33 34 34 39 42 40 36 40 39 51 45 36 37
11 11 9 13 13 16 4 11 19 17 11 14 16 34 31 16 25 41 37 32 14 14 11 8 11 28 35 24 17 29 32 32 34 35 39 40 51 37 29 35 43 50 32 30 34
12 11 3 1 10 10 9 13 17 27 15 24 32 35 36 26 48 68 59 52 36 24 7 8 10 15 12 27 35 13 8 4 11 27 30 25 42 40 38 43 19 12 17 24 32
Wind_Direction_850mb
4 1 359 355 352 348 345 340 336 333 329 327 327 327 326 323 317 311 293 272 295 260 248 240 209 193 198 213 217 225 235 238 238 234 247 239 251 236 244 254 211 214 247 333 184
3 0 359 354 350 346 342 337 334 332 330 326 326 326 329 330 326 310 318 316 325 252 201 187 193 186 194 210 209 213 231 241 253 258 247 257 234 243 235 238 237 224 211 190 178
0 358 357 353 348 345 339 336 334 332 328 325 326 326 329 335 328 108 343 326 317 286 214 216 217 197 218 217 210 221 241 248 251 272 255 258 255 239 246 249 227 227 221 216 202
356 354 354 350 346 341 335 333 333 331 332 332 329 327 328 339 325 336 328 325 309 266 225 217 204 204 221 217 224 244 245 247 261 266 245 250 257 253 249 247 251 237 253 212 221
353 352 351 348 345 341 336 334 332 334 333 335 331 333 345 309 316 345 348 335 326 271 217 214 217 221 239 245 241 235 251 252 245 257 254 265 256 262 256 253 250 251 247 245 243
352 352 350 348 347 345 342 340 342 340 343 343 347 345 2 299 343 343 345 327 268 234 239 224 232 241 275 269 244 262 263 258 254 251 254 255 262 253 249 252 251 247 248 248 245
352 353 351 351 350 351 354 349 342 353 356 354 342 1 63 39 21 358 330 313 263 251 251 247 246 239 258 258 252 257 262 254 243 238 242 255 259 248 250 246 241 240 247 243 241
353 354 354 356 358 360 0 357 353 358 1 351 36 56 78 28 25 3 345 326 291 258 250 253 251 251 258 263 259 249 248 253 244 236 236 230 258 255 171 226 240 240 237 236 236
354 357 358 4 6 13 9 2 346 63 6 14 25 36 72 2 14 17 21 17 351 275 255 243 231 242 237 244 252 242 253 248 241 228 243 216 258 244 242 259 246 236 234 240 245
354 359 2 10 21 9 3 8 359 13 356 19 12 289 23 357 328 352 3 14 8 344 261 235 237 236 223 244 245 248 240 238 257 248 214 244 240 258 211 229 238 243 240 244 242
352 360 4 11 14 10 13 356 9 6 16 43 36 63 358 356 357 349 354 335 326 295 287 282 248 239 249 248 257 278 279 275 275 264 270 261 271 266 260 249 256 252 246 244 241
351 355 1 352 357 4 17 27 16 315 316 51 87 44 11 355 309 336 343 337 319 302 293 275 263 272 284 280 273 262 260 258 261 260 260 265 265 260 254 256 252 254 251 249 248
351 351 358 359 332 351 359 1 347 323 261 68 323 2 6 346 320 337 337 328 316 306 302 277 268 266 257 279 283 259 252 258 259 259 247 261 266 261 258 257 253 249 248 250 246
350 352 360 4 8 351 11 339 344 226 244 27 345 39 336 332 302 332 335 325 308 315 308 285 285 315 269 257 241 250 254 263 263 254 259 251 268 264 259 253 237 239 238 240 243
351 354 1 0 337 344 326 333 341 210 278 356 358 319 336 351 331 338 328 309 301 296 288 271 297 303 293 277 284 267 264 272 258 261 255 252 252 261 253 255 250 246 239 240 238
352 353 357 354 359 332 324 324 309 238 27 347 320 337 334 346 337 322 330 315 292 283 273 266 274 273 275 293 280 264 270 270 269 260 245 240 248 254 256 251 242 242 246 237 236
353 2 2 0 341 342 339 333 251 17 353 343 327 330 323 346 336 343 329 327 338 323 331 320 287 279 285 295 251 239 247 250 238 226 236 223 229 244 250 251 253 256 257 247 241
353 342 0 358 349 343 345 263 16 4 339 324 322 315 328 341 347 330 323 330 66 324 313 332 318 12 336 309 292 278 234 251 252 286 237 227 220 236 241 257 256 253 254 268 250
357 0 359 352 353 359 312 37 14 354 343 322 318 328 340 350 334 329 336 344 342 350 342 318 293 321 294 273 305 270 232 241 266 277 256 232 234 250 249 247 253 247 236 241 235
359 20 355 352 355 5 17 59 353 343 329 321 320 340 325 341 335 345 323 355 331 351 328 303 300 298 323 332 293 238 248 236 221 259 220 236 251 251 165 239 332 230 229 238 236
11 302 352 357 27 35 38 38 325 346 341 326 314 303 316 336 325 322 290 312 32 331 328 302 238 289 304 250 297 251 227 227 283 268 263 241 119 63 41 316 134 67 75 96 264
6 307 346 22 41 29 31 353 333 316 323 295 288 292 306 326 303 313 291 301 324 330 308 318 282 293 299 306 279 266 259 273 230 236 244 282 269 119 99 23 32 86 26 340 315
345 319 345 18 25 26 8 310 286 317 335 311 290 282 318 312 313 289 306 292 317 330 317 316 250 305 325 167 50 339 323 296 200 259 253 255 255 99 44 268 255 311 323 317 312
348 327 24 42 54 346 357 10 338 320 300 286 282 290 337 305 280 278 291 319 314 299 294 273 231 249 277 301 306 297 289 275 272 277 291 269 276 279 280 290 295 305 304 300 297
14 35 1 339 20 343 314 330 330 347 284 304 261 265 341 288 311 273 323 318 310 292 259 271 269 276 278 286 285 278 279 279 271 268 268 279 284 284 302 303 302 298 301 290 280
15 354 316 296 309 305 154 358 322 336 294 309 282 317 312 272 262 287 299 305 284 305 319 283 275 301 292 277 262 295 285 280 288 291 282 289 276 273 294 303 294 293 319 319 303
10 341 339 43 314 294 16 338 315 323 288 266 300 311 310 310 308 293 283 271 254 271 289 271 294 311 287 317 309 272 43 40 286 289 287 279 283 306 302 292 275 314 331 304 297